Theta_e
344 345 348 351 351 350 349 348 347 346 346 346 345 345 345 345 346 346 346 348 348 348 344 342 340 340 340 339 339 338 338 340 340 340 338 337 337 337 337 339 338 337 340
345 345 346 349 350 349 349 347 346 345 345 345 345 345 344 345 345 345 347 348 348 346 341 339 338 337 337 336 336 335 335 336 338 339 339 336 336 336 336 335 336 334 336
344 344 348 347 348 348 347 346 345 345 345 345 344 344 344 344 344 345 346 347 346 345 339 338 337 337 337 336 335 334 334 335 335 336 340 329 331 335 336 336 337 334 334
345 343 347 345 346 346 345 344 344 344 344 344 344 344 344 344 346 345 345 345 346 344 339 338 337 337 336 335 334 334 333 334 333 335 329 328 329 335 335 333 334 334 334
344 342 346 343 343 344 343 343 343 343 342 342 343 344 344 347 347 347 345 344 345 343 338 337 336 335 334 334 333 332 332 333 334 329 328 328 327 330 331 330 329 330 331
346 342 341 340 341 343 343 343 342 342 341 341 342 343 345 346 347 346 344 344 344 341 336 335 333 331 332 332 331 329 330 331 332 327 327 327 326 328 329 328 327 327 328
346 343 344 338 340 342 343 342 341 340 340 341 341 341 342 342 344 345 343 343 341 338 334 332 330 329 329 328 327 327 328 327 325 326 325 325 325 326 327 326 325 326 325
339 339 338 339 339 339 340 340 339 339 340 340 340 339 340 339 341 342 341 338 337 335 334 331 330 328 326 325 324 324 325 326 324 325 325 323 324 325 325 324 323 323 323
337 335 336 336 338 337 336 336 336 338 338 339 338 338 337 336 336 337 337 337 336 334 332 330 328 326 323 322 321 321 321 323 322 323 324 323 323 323 323 322 322 322 321
333 332 332 333 334 334 335 334 335 334 336 336 336 335 334 334 334 333 333 334 335 333 331 327 325 322 321 320 319 320 320 322 319 321 323 323 323 322 322 321 321 321 320
326 329 332 331 332 332 335 334 333 335 335 333 333 332 329 328 326 328 331 331 331 330 329 325 322 320 320 318 318 316 320 316 316 318 321 326 323 322 321 320 319 319 319
318 320 324 327 327 328 326 328 328 330 331 330 329 331 327 328 328 327 330 330 329 328 326 323 322 321 320 317 315 317 314 314 313 314 318 324 323 321 320 319 318 317 317
320 318 318 320 321 324 323 325 326 328 328 327 330 330 331 330 331 328 326 324 323 323 317 317 317 320 320 318 316 315 313 312 311 312 313 319 322 322 320 318 317 316 316
316 316 319 322 322 321 320 319 322 325 327 328 328 332 332 329 330 328 324 323 324 322 321 323 321 320 318 317 315 314 313 312 312 312 312 318 320 322 320 318 316 314 313
315 317 318 319 319 319 317 319 320 319 321 323 328 330 329 327 329 328 328 326 325 324 323 322 320 318 318 316 314 312 311 312 313 313 316 319 317 321 319 319 316 315 312
315 316 317 318 320 320 318 320 321 327 326 326 328 329 333 331 331 328 327 325 325 324 323 322 321 319 317 316 313 311 311 311 312 314 315 315 319 322 318 315 315 314 313
314 315 316 317 320 320 319 321 324 327 326 326 326 333 330 330 330 329 326 326 324 324 324 323 320 320 317 315 313 311 311 311 311 312 312 315 314 315 316 314 312 310 308
317 315 317 319 320 321 320 322 325 326 326 323 327 329 332 330 330 329 327 325 325 325 322 321 319 319 318 315 314 312 312 310 310 310 313 313 314 314 312 311 308 304 303
321 319 319 321 322 323 325 325 327 329 326 326 327 330 333 332 330 328 326 327 328 324 322 318 319 321 317 314 312 312 313 312 310 308 309 311 312 308 308 310 307 304 303
321 320 321 323 325 327 328 327 325 325 327 326 326 329 332 332 334 330 328 329 327 323 319 318 318 318 318 314 309 309 313 313 311 310 308 308 308 308 308 307 306 306 306
324 323 323 324 327 325 324 323 323 321 324 325 327 331 333 332 333 333 331 329 326 321 320 319 317 317 315 314 312 312 313 314 312 309 309 308 307 307 308 306 305 305 304
323 323 322 322 324 325 324 324 324 324 323 326 328 331 333 332 332 331 331 329 326 322 320 318 317 314 315 315 311 311 307 310 308 309 308 308 308 307 307 306 305 305 304
324 324 323 325 326 327 328 327 325 325 324 323 325 328 331 329 325 324 325 327 325 324 319 318 316 314 312 313 313 310 305 303 306 310 308 308 308 307 306 306 305 305 305
324 326 326 326 327 328 330 327 326 322 320 322 325 327 329 324 323 322 321 323 327 325 320 316 315 316 316 312 312 311 309 305 301 301 307 307 307 305 306 305 305 305 305
326 327 328 328 329 330 330 330 327 325 324 325 326 328 328 326 325 323 323 323 325 321 317 315 316 318 315 313 305 302 302 305 306 302 299 301 304 304 304 304 304 304 303
328 329 330 328 327 329 330 331 331 329 327 324 325 328 326 326 325 325 324 321 320 317 315 316 320 317 309 306 306 302 299 301 302 301 299 299 299 301 303 303 303 302 302
Wind_Speed
14 19 14 18 19 21 20 20 20 20 21 20 20 18 17 17 17 17 17 16 20 20 21 21 21 21 21 21 19 18 17 15 16 19 22 22 22 22 23 23 19 18 20
19 20 14 15 18 21 21 21 21 20 21 21 19 18 17 17 17 18 16 18 20 21 21 22 21 21 20 20 19 16 12 9 9 15 23 22 21 21 21 20 19 18 20
19 20 19 16 17 21 21 21 21 21 21 20 19 18 17 17 17 18 17 18 21 21 22 21 21 21 20 19 17 13 9 7 6 4 6 15 17 19 20 20 17 19 19
18 18 21 18 19 20 21 21 21 22 22 20 19 18 17 17 17 18 17 17 20 21 22 20 20 20 19 17 15 10 6 6 7 8 11 14 15 19 19 19 20 21 20
17 21 22 21 21 21 22 22 21 21 21 20 20 19 18 17 18 18 18 18 19 21 21 20 19 19 17 15 12 8 8 10 13 16 16 14 13 16 18 20 17 19 20
17 19 22 22 21 23 22 21 21 21 21 21 20 20 20 19 19 20 20 20 20 20 20 20 19 17 16 13 11 9 10 11 13 14 15 15 14 16 18 18 18 17 18
15 14 20 16 18 21 21 21 21 20 20 19 20 20 21 19 18 20 21 20 20 18 19 19 19 16 15 13 11 9 12 16 10 13 14 14 13 16 18 17 17 17 17
4 13 17 18 15 18 19 19 17 17 18 19 20 20 20 20 19 19 21 21 20 18 18 17 16 15 14 13 12 9 10 11 10 13 14 12 13 15 16 16 16 16 17
10 15 16 12 14 15 14 16 13 12 14 15 19 19 18 20 19 19 20 20 19 18 17 17 15 14 14 11 9 6 7 10 7 8 13 10 13 14 15 15 15 16 16
11 15 15 14 11 12 11 17 16 13 11 13 18 19 19 18 19 19 19 18 18 17 17 17 15 14 12 10 6 2 7 11 8 11 10 9 12 13 13 14 14 14 14
10 15 13 15 16 14 13 14 17 17 13 16 16 18 13 10 15 16 15 17 17 17 16 16 14 13 11 7 2 5 8 6 6 7 8 8 10 11 12 13 12 13 13
9 9 10 13 12 11 9 11 12 13 10 10 12 10 9 9 6 12 13 15 15 15 14 13 12 12 14 5 5 4 6 4 5 6 7 8 10 10 10 11 10 11 11
12 11 10 12 12 9 8 7 6 8 5 7 6 5 7 7 8 7 8 7 8 11 8 8 7 3 6 5 6 5 3 3 4 5 8 6 4 9 9 9 8 8 9
10 13 11 10 8 12 8 5 4 3 6 6 4 5 5 5 6 7 6 8 8 7 8 5 4 5 6 5 5 5 6 5 4 3 8 5 5 9 9 8 7 7 6
12 11 11 11 10 10 13 5 3 3 6 7 7 6 7 8 6 8 7 8 7 6 6 5 5 5 5 4 5 5 4 4 3 3 6 6 2 7 8 9 7 7 5
12 11 12 11 8 9 8 8 6 7 9 10 8 6 5 6 5 5 5 7 6 6 6 6 6 5 3 5 4 3 3 4 4 3 5 7 9 5 6 5 5 5 4
12 11 12 10 8 8 9 7 5 6 7 8 8 9 8 9 7 7 7 7 6 7 8 5 5 4 4 4 4 3 4 2 3 1 3 8 8 10 8 6 5 3 0
18 17 15 13 14 15 14 11 10 8 8 8 8 8 11 10 11 7 6 6 7 6 7 6 5 6 4 3 2 2 2 2 3 1 1 4 2 9 9 10 6 1 3
20 23 23 21 20 17 12 12 10 9 7 8 8 6 8 11 9 8 7 8 8 8 4 6 7 4 4 4 4 3 1 2 4 2 1 3 0 4 4 10 9 6 3
22 22 21 17 20 19 12 10 8 7 8 7 8 10 13 10 10 9 8 8 8 6 8 8 6 4 4 4 3 3 3 3 3 3 5 5 4 3 5 7 5 7 10
21 21 21 20 18 14 11 11 9 9 8 9 9 11 9 10 12 9 9 9 9 10 8 9 6 4 5 4 5 7 7 9 5 5 6 6 6 6 6 5 5 6 6
20 21 21 21 20 15 11 11 10 10 10 10 10 10 7 7 9 9 11 9 11 9 10 9 9 6 5 6 6 3 5 3 6 9 7 6 7 6 6 6 6 6 6
20 21 21 20 19 17 15 11 10 9 8 10 11 9 8 10 4 3 6 5 9 10 9 11 11 8 7 6 6 4 2 3 7 4 10 7 5 6 6 7 7 8 6
21 20 20 19 18 18 17 12 14 11 10 10 9 8 8 8 9 9 10 9 10 9 7 9 9 8 9 7 7 3 2 3 5 5 4 7 8 7 8 7 7 8 9
22 19 19 19 19 18 17 15 11 13 10 9 10 12 11 11 12 13 13 12 11 6 8 10 10 10 8 4 4 2 2 6 9 8 8 6 5 6 7 5 6 6 8
20 19 18 21 21 19 18 18 17 15 14 10 10 8 6 7 9 13 12 5 5 8 9 9 9 10 5 4 3 2 2 5 7 7 9 9 9 8 8 5 5 7 7
Wind_Direction
137 135 135 134 134 130 130 129 128 128 127 124 122 122 121 119 119 116 117 117 108 106 105 100 96 91 89 86 84 81 80 85 92 92 79 70 65 57 50 39 53 57 54
133 143 135 127 136 129 130 132 133 132 127 126 125 125 124 123 120 118 117 113 110 107 103 99 97 95 90 88 81 78 77 69 96 108 107 84 67 67 66 64 53 61 58
137 143 147 127 129 132 133 134 134 132 128 128 127 127 126 123 121 121 121 115 115 109 106 104 101 96 92 87 84 80 63 31 8 176 133 81 70 66 65 57 64 66 64
148 148 147 134 136 134 137 136 135 133 131 131 130 129 124 122 124 125 122 119 117 112 112 106 100 96 92 89 86 79 45 8 322 280 66 75 75 56 63 68 55 51 65
160 152 139 141 141 141 143 137 137 135 133 134 131 127 122 119 118 124 126 122 117 111 109 104 101 98 94 87 79 53 9 347 334 58 54 52 66 57 59 49 59 59 56
174 151 146 140 145 143 138 137 136 137 137 134 133 126 117 116 114 116 124 117 110 111 110 106 101 94 87 80 70 34 1 336 289 74 77 66 62 62 66 62 59 64 60
173 138 141 128 138 134 134 136 138 138 135 134 131 124 117 113 111 111 114 113 107 110 110 105 99 96 89 81 69 30 359 343 67 78 74 69 66 63 62 61 63 61 62
173 143 125 121 122 123 125 127 130 133 133 133 127 121 113 106 104 106 107 108 112 110 107 103 101 94 85 77 61 32 355 338 74 89 87 77 73 74 73 69 68 68 68
78 100 104 116 117 109 107 109 110 121 124 123 117 110 105 103 103 104 107 111 112 111 107 105 97 90 83 76 70 40 349 339 64 64 86 88 80 80 80 78 74 71 69
86 99 115 110 115 122 120 108 111 117 92 100 101 106 102 102 105 105 106 108 111 111 109 107 100 92 89 81 65 352 311 301 40 86 72 98 96 87 86 81 78 77 75
88 112 130 138 130 139 133 133 122 113 100 98 101 111 117 122 118 124 97 108 109 112 113 111 111 115 110 112 119 285 281 39 60 72 79 105 98 99 91 85 82 80 79
79 90 109 123 123 132 114 112 136 132 143 126 129 134 123 121 140 116 104 106 107 107 111 125 144 157 196 134 132 223 51 38 57 67 81 47 121 109 102 92 84 83 81
118 109 90 95 110 87 96 108 157 150 132 102 165 118 126 109 111 126 131 128 125 135 137 151 180 183 56 54 58 41 53 52 44 70 89 66 134 122 114 106 99 95 93
106 115 115 90 87 98 96 95 57 78 101 139 103 113 146 118 144 150 154 159 157 177 161 173 109 113 106 94 90 79 51 18 24 74 103 77 44 139 137 135 129 121 115
115 99 95 84 89 99 98 99 112 198 127 131 178 175 144 165 183 172 177 166 180 155 169 177 146 152 135 124 86 73 93 80 67 43 97 75 356 164 156 157 152 151 149
107 99 107 100 102 106 131 173 195 198 169 196 178 164 198 182 184 190 164 186 170 177 171 182 171 165 135 121 106 101 51 43 54 351 117 112 65 104 162 148 191 171 165
126 123 123 131 127 149 172 166 180 196 199 190 185 174 193 210 181 181 188 187 172 188 187 198 169 168 168 162 127 108 132 116 94 48 289 150 139 93 92 105 97 100 39
153 149 148 160 169 170 168 183 217 190 195 195 196 178 198 200 195 193 187 191 186 196 192 192 193 186 185 185 136 146 138 157 145 230 261 274 220 155 158 147 135 74 308
161 161 166 170 175 177 187 201 205 195 196 206 200 185 196 204 194 199 202 199 188 201 177 188 209 222 175 206 188 209 239 226 185 209 296 241 247 301 1 150 158 172 182
156 164 166 166 179 186 188 202 193 207 211 214 197 199 200 212 194 204 219 214 187 190 196 199 189 210 227 209 235 202 236 253 245 250 227 245 229 243 277 296 204 195 188
165 172 176 182 188 194 194 196 205 202 208 205 212 205 202 224 217 212 227 204 192 209 197 193 183 194 210 193 244 231 218 191 230 244 219 248 246 225 252 295 280 297 172
176 176 181 187 194 201 198 202 204 202 202 206 210 209 198 234 218 214 232 217 197 203 199 187 193 193 222 194 251 286 271 212 188 211 228 236 233 267 279 248 251 276 281
189 190 193 198 196 204 214 202 204 220 219 205 209 204 204 206 179 354 297 258 203 217 190 201 202 208 206 192 232 279 285 266 334 225 191 218 248 250 257 268 257 255 261
195 196 202 205 205 204 211 222 204 205 212 214 218 207 183 184 195 184 225 243 233 217 189 197 203 217 227 210 185 213 335 298 268 301 315 191 206 223 234 248 267 280 281
196 198 203 210 213 213 206 216 212 217 221 215 202 205 198 203 210 206 213 221 230 205 196 200 210 211 210 259 117 111 255 264 246 261 283 287 266 239 232 219 248 292 299
198 201 202 211 215 218 215 206 224 214 221 224 217 175 202 201 204 211 216 224 198 209 220 206 207 206 145 130 155 157 231 271 297 297 277 277 284 290 287 282 260 262 262